• In Portugal
  • List of Countries
  • For 7 days
  • Water Temperature
  • Satellite Maps
  • Weather Map
  • Weather Widgets
  • user-avatar
    Login

    Hourly Weather Tsumeb

    Today, 23 February, Friday

    Time Temperature Precipitation Wind Pressure Humidity
    00:00 +25°C° 0.1 mm 2 mps 650 mmHg 61%
    01:00 +24°C° 0.1 mm 2 mps 650 mmHg 66%
    02:00 +23°C° 0 mm 2 mps 649 mmHg 69%
    03:00 +23°C° 0 mm 2 mps 649 mmHg 71%
    04:00 +21°C° 0 mm 2 mps 649 mmHg 73%
    05:00 +23°C° 0 mm 1 mps 649 mmHg 72%
    06:00 +23°C° 0 mm 1 mps 649 mmHg 70%
    07:00 +24°C° 0 mm 1 mps 650 mmHg 69%
    08:00 +26°C° 0 mm 1 mps 650 mmHg 60%
    09:00 +28°C° 0 mm 2 mps 651 mmHg 51%
    10:00 +31°C° 0 mm 2 mps 651 mmHg 42%
    11:00 +32°C° 0 mm 2 mps 651 mmHg 36%
    12:00 +35°C° 0 mm 3 mps 651 mmHg 30%
    13:00 +36°C° 0 mm 4 mps 650 mmHg 24%
    14:00 +36°C° 0 mm 3 mps 650 mmHg 25%
    15:00 +35°C° 0 mm 3 mps 649 mmHg 26%
    16:00 +34°C° 0 mm 2 mps 648 mmHg 27%
    17:00 +33°C° 0 mm 3 mps 648 mmHg 29%
    18:00 +31°C° 0 mm 3 mps 648 mmHg 30%
    19:00 +30°C° 0 mm 3 mps 648 mmHg 32%
    20:00 +29°C° 0 mm 3 mps 649 mmHg 33%
    21:00 +29°C° 0 mm 4 mps 650 mmHg 34%
    22:00 +28°C° 0 mm 4 mps 650 mmHg 36%
    23:00 +27°C° 0 mm 4 mps 650 mmHg 39%

    Tomorrow, 24 February, Saturday

    Time Temperature Precipitation Wind Pressure Humidity
    00:00 +26°C° 0 mm 4 mps 650 mmHg 43%
    01:00 +25°C° 0 mm 3 mps 650 mmHg 46%
    02:00 +24°C° 0 mm 3 mps 649 mmHg 50%
    03:00 +22°C° 0 mm 3 mps 649 mmHg 53%
    04:00 +22°C° 0 mm 3 mps 649 mmHg 57%
    05:00 +22°C° 0 mm 3 mps 649 mmHg 55%
    06:00 +24°C° 0 mm 2 mps 650 mmHg 54%
    07:00 +24°C° 0 mm 2 mps 651 mmHg 52%
    08:00 +26°C° 0.1 mm 2 mps 651 mmHg 47%
    09:00 +28°C° 0.1 mm 2 mps 652 mmHg 42%
    10:00 +30°C° 0.1 mm 2 mps 653 mmHg 37%
    11:00 +32°C° 0 mm 2 mps 652 mmHg 34%
    12:00 +33°C° 0 mm 1 mps 652 mmHg 30%
    13:00 +35°C° 0 mm 1 mps 652 mmHg 26%
    14:00 +34°C° 0 mm 1 mps 651 mmHg 30%
    15:00 +33°C° 0 mm 1 mps 650 mmHg 33%
    16:00 +31°C° 0 mm 1 mps 649 mmHg 36%
    17:00 +30°C° 0.1 mm 2 mps 649 mmHg 38%
    18:00 +29°C° 0.1 mm 2 mps 649 mmHg 41%
    19:00 +27°C° 0.1 mm 3 mps 649 mmHg 44%
    20:00 +27°C° 0 mm 3 mps 650 mmHg 41%
    21:00 +27°C° 0 mm 4 mps 651 mmHg 39%
    22:00 +26°C° 0 mm 4 mps 652 mmHg 36%
    23:00 +25°C° 0 mm 4 mps 651 mmHg 35%

    Day after tomorrow, 25 February, Sunday

    Time Temperature Precipitation Wind Pressure Humidity
    00:00 +23°C° 0 mm 4 mps 651 mmHg 33%
    01:00 +22°C° 0 mm 4 mps 651 mmHg 32%
    02:00 +22°C° 0 mm 4 mps 650 mmHg 32%
    03:00 +21°C° 0 mm 4 mps 650 mmHg 33%
    04:00 +21°C° 0 mm 3 mps 650 mmHg 34%
    05:00 +21°C° 0 mm 4 mps 651 mmHg 34%
    06:00 +21°C° 0 mm 4 mps 651 mmHg 34%
    07:00 +22°C° 0 mm 4 mps 652 mmHg 35%
    08:00 +26°C° 0 mm 4 mps 652 mmHg 31%
    09:00 +28°C° 0 mm 4 mps 653 mmHg 28%
    10:00 +32°C° 0 mm 4 mps 654 mmHg 25%
    11:00 +33°C° 0 mm 3 mps 653 mmHg 24%
    12:00 +34°C° 0 mm 2 mps 653 mmHg 24%
    13:00 +34°C° 0 mm 1 mps 652 mmHg 23%
    14:00 +35°C° 0 mm 2 mps 652 mmHg 24%
    15:00 +35°C° 0 mm 2 mps 651 mmHg 24%
    16:00 +35°C° 0 mm 2 mps 651 mmHg 24%
    17:00 +33°C° 0.1 mm 3 mps 651 mmHg 28%
    18:00 +30°C° 0.1 mm 3 mps 651 mmHg 32%
    19:00 +28°C° 0.1 mm 3 mps 651 mmHg 36%
    20:00 +27°C° 0.1 mm 3 mps 651 mmHg 38%
    21:00 +26°C° 0.1 mm 3 mps 652 mmHg 41%
    22:00 +25°C° 0.1 mm 4 mps 652 mmHg 44%
    23:00 +23°C° 0 mm 4 mps 652 mmHg 39%

    26 February, Monday

    Time Temperature Precipitation Wind Pressure Humidity
    00:00 +22°C° 0 mm 4 mps 651 mmHg 35%
    01:00 +21°C° 0 mm 4 mps 651 mmHg 31%
    02:00 +21°C° 0 mm 4 mps 651 mmHg 32%
    03:00 +21°C° 0 mm 4 mps 651 mmHg 33%
    04:00 +21°C° 0 mm 4 mps 651 mmHg 34%
    05:00 +21°C° 0.1 mm 3 mps 651 mmHg 35%
    06:00 +21°C° 0.1 mm 3 mps 652 mmHg 37%
    07:00 +21°C° 0.1 mm 3 mps 652 mmHg 39%
    08:00 +24°C° 0.1 mm 2 mps 652 mmHg 39%
    09:00 +26°C° 0.1 mm 2 mps 653 mmHg 39%
    10:00 +27°C° 0.1 mm 2 mps 653 mmHg 39%
    11:00 +28°C° 0 mm 2 mps 653 mmHg 38%
    12:00 +29°C° 0 mm 2 mps 652 mmHg 37%
    13:00 +30°C° 0 mm 3 mps 651 mmHg 37%
    14:00 +31°C° 0 mm 3 mps 651 mmHg 36%
    15:00 +31°C° 0 mm 3 mps 651 mmHg 34%
    16:00 +33°C° 0 mm 3 mps 651 mmHg 33%
    17:00 +30°C° 0.1 mm 3 mps 651 mmHg 37%
    18:00 +28°C° 0.1 mm 2 mps 651 mmHg 40%
    19:00 +26°C° 0.1 mm 2 mps 651 mmHg 43%
    20:00 +26°C° 0 mm 2 mps 651 mmHg 45%
    21:00 +25°C° 0 mm 3 mps 652 mmHg 47%
    22:00 +25°C° 0 mm 3 mps 652 mmHg 49%
    23:00 +24°C° 1.1 mm 3 mps 652 mmHg 56%

    27 February, Tuesday

    Time Temperature Precipitation Wind Pressure Humidity
    00:00 +23°C° 1.1 mm 2 mps 652 mmHg 63%
    01:00 +22°C° 1.1 mm 1 mps 652 mmHg 70%
    02:00 +20°C° 0.6 mm 2 mps 652 mmHg 74%
    03:00 +20°C° 0.6 mm 2 mps 652 mmHg 78%
    04:00 +19°C° 0.6 mm 2 mps 652 mmHg 82%
    05:00 +20°C° 0 mm 3 mps 652 mmHg 82%
    06:00 +20°C° 0 mm 3 mps 653 mmHg 81%
    07:00 +20°C° 0 mm 3 mps 653 mmHg 81%
    08:00 +24°C° 0 mm 3 mps 653 mmHg 71%
    09:00 +26°C° 0 mm 3 mps 654 mmHg 61%
    10:00 +28°C° 0 mm 3 mps 654 mmHg 51%
    11:00 +29°C° 0 mm 3 mps 654 mmHg 46%
    12:00 +31°C° 0 mm 2 mps 653 mmHg 40%
    13:00 +32°C° 0 mm 2 mps 653 mmHg 35%
    14:00 +31°C° 0.1 mm 2 mps 652 mmHg 37%
    15:00 +31°C° 0.1 mm 3 mps 651 mmHg 40%
    16:00 +30°C° 0.1 mm 4 mps 651 mmHg 43%
    17:00 +28°C° 0.5 mm 3 mps 651 mmHg 49%
    18:00 +26°C° 0.5 mm 3 mps 651 mmHg 56%
    19:00 +25°C° 0.5 mm 3 mps 651 mmHg 62%
    20:00 +25°C° 0 mm 3 mps 651 mmHg 61%
    21:00 +24°C° 0 mm 3 mps 652 mmHg 60%
    22:00 +24°C° 0 mm 3 mps 652 mmHg 58%
    23:00 +24°C° 0 mm 3 mps 652 mmHg 61%

    28 February, Wednesday

    Time Temperature Precipitation Wind Pressure Humidity
    00:00 +23°C° 0 mm 2 mps 652 mmHg 64%
    01:00 +23°C° 0 mm 2 mps 652 mmHg 66%
    02:00 +21°C° 0 mm 2 mps 652 mmHg 71%
    03:00 +20°C° 0 mm 2 mps 652 mmHg 75%
    04:00 +19°C° 0 mm 2 mps 652 mmHg 80%
    05:00 +19°C° 0 mm 2 mps 652 mmHg 79%
    06:00 +20°C° 0 mm 3 mps 653 mmHg 79%
    07:00 +20°C° 0 mm 3 mps 653 mmHg 78%
    08:00 +23°C° 0 mm 2 mps 654 mmHg 68%
    09:00 +26°C° 0 mm 2 mps 654 mmHg 58%
    10:00 +28°C° 0 mm 2 mps 654 mmHg 47%
    11:00 +30°C° 0 mm 2 mps 654 mmHg 42%
    12:00 +31°C° 0 mm 2 mps 654 mmHg 36%
    13:00 +34°C° 0 mm 2 mps 653 mmHg 30%
    14:00 +32°C° 0 mm 2 mps 652 mmHg 31%
    15:00 +32°C° 0 mm 2 mps 652 mmHg 32%
    16:00 +31°C° 0 mm 2 mps 651 mmHg 34%
    17:00 +29°C° 0 mm 3 mps 651 mmHg 37%
    18:00 +28°C° 0 mm 3 mps 651 mmHg 41%
    19:00 +27°C° 0 mm 3 mps 651 mmHg 44%
    20:00 +26°C° 0 mm 4 mps 651 mmHg 41%
    21:00 +26°C° 0 mm 4 mps 652 mmHg 38%
    22:00 +26°C° 0 mm 4 mps 652 mmHg 35%
    23:00 +25°C° 0 mm 4 mps 652 mmHg 36%
    Show more